Time,TemperatureF,DewpointF,PressureIn,WindDirection,WindDirectionDegrees,WindSpeedMPH,WindSpeedGustMPH,Humidity,HourlyPrecipIn,Conditions,Clouds,dailyrainin,SolarRadiationWatts/m^2,SoftwareType,DateUTC
2014-02-20 00:02:00,21.0,18.0,-100.00,NNW,328,1.0,5.0,88,0.00,,,0.30,0.000000,,2014-02-20 05:02:00,
2014-02-20 00:43:00,20.0,18.0,-100.00,WSW,256,2.0,4.0,92,0.00,,,0.30,0.000000,,2014-02-20 05:43:00,
2014-02-20 00:53:00,20.0,18.0,-100.00,WSW,256,2.0,4.0,92,0.00,,,0.30,0.000000,,2014-02-20 05:53:00,
2014-02-20 01:02:00,20.0,18.0,-100.00,WSW,256,2.0,4.0,92,0.00,,,0.30,0.000000,,2014-02-20 06:02:00,
2014-02-20 01:42:00,18.0,16.0,-100.00,SW,222,2.0,3.0,91,0.00,,,0.30,0.000000,,2014-02-20 06:42:00,
2014-02-20 01:53:00,18.0,16.0,-100.00,SW,222,2.0,3.0,91,0.00,,,0.30,0.000000,,2014-02-20 06:53:00,
2014-02-20 02:02:00,18.0,16.0,-100.00,SW,222,2.0,3.0,91,0.00,,,0.30,0.000000,,2014-02-20 07:02:00,
2014-02-20 02:42:00,21.0,19.0,-100.00,West,262,2.0,5.0,93,0.00,,,0.30,0.000000,,2014-02-20 07:42:00,
2014-02-20 02:52:00,21.0,19.0,-100.00,West,262,2.0,5.0,93,0.00,,,0.30,0.000000,,2014-02-20 07:52:00,
2014-02-20 03:02:00,21.0,19.0,-100.00,West,262,2.0,5.0,93,0.00,,,0.30,0.000000,,2014-02-20 08:02:00,
2014-02-20 03:42:00,22.0,20.0,-100.00,SW,227,2.0,4.0,93,0.00,,,0.30,0.000000,,2014-02-20 08:42:00,
2014-02-20 03:52:00,22.0,20.0,-100.00,SW,227,2.0,4.0,93,0.00,,,0.30,0.000000,,2014-02-20 08:52:00,
2014-02-20 04:02:00,22.0,20.0,-100.00,SW,227,2.0,4.0,93,0.00,,,0.30,0.000000,,2014-02-20 09:02:00,
2014-02-20 04:04:00,21.0,19.0,-100.00,North,-999,0.0,4.0,92,0.00,,,0.30,0.000000,,2014-02-20 09:04:00,
2014-02-20 04:43:00,21.0,19.0,-100.00,North,-999,0.0,4.0,92,0.00,,,0.30,0.000000,,2014-02-20 09:43:00,
2014-02-20 04:54:00,21.0,19.0,-100.00,North,-999,0.0,4.0,92,0.00,,,0.30,0.000000,,2014-02-20 09:54:00,
2014-02-20 05:44:00,18.0,15.0,-100.00,ENE,57,3.0,4.0,89,0.00,,,0.30,0.000000,,2014-02-20 10:44:00,
2014-02-20 05:53:00,18.0,15.0,-100.00,ENE,57,3.0,4.0,89,0.00,,,0.30,0.000000,,2014-02-20 10:53:00,
2014-02-20 06:03:00,18.0,15.0,-100.00,ENE,57,3.0,4.0,89,0.00,,,0.30,0.000000,,2014-02-20 11:03:00,
2014-02-20 06:43:00,18.0,16.0,-100.00,East,85,1.0,4.0,90,0.00,,,0.30,0.000000,,2014-02-20 11:43:00,
2014-02-20 06:52:00,18.0,16.0,-100.00,East,85,1.0,4.0,90,0.00,,,0.30,0.000000,,2014-02-20 11:52:00,
2014-02-20 07:02:00,18.0,16.0,-100.00,East,85,1.0,4.0,90,0.00,,,0.30,0.000000,,2014-02-20 12:02:00,
2014-02-20 07:42:00,19.0,17.0,-100.00,East,88,1.0,4.0,92,0.00,,,0.30,0.000000,,2014-02-20 12:42:00,
2014-02-20 07:52:00,19.0,17.0,-100.00,East,88,1.0,4.0,92,0.00,,,0.30,0.000000,,2014-02-20 12:52:00,
2014-02-20 08:02:00,19.0,17.0,-100.00,East,88,1.0,4.0,92,0.00,,,0.30,0.000000,,2014-02-20 13:02:00,
2014-02-20 08:42:00,19.0,17.0,-100.00,East,93,2.0,5.0,91,0.00,,,0.30,5.000000,,2014-02-20 13:42:00,
2014-02-20 08:52:00,19.0,17.0,-100.00,East,93,2.0,5.0,91,0.00,,,0.30,5.000000,,2014-02-20 13:52:00,
2014-02-20 09:02:00,19.0,17.0,-100.00,East,93,2.0,5.0,91,0.00,,,0.30,5.000000,,2014-02-20 14:02:00,
2014-02-20 09:42:00,21.0,19.0,-100.00,East,100,3.0,6.0,90,0.00,,,0.30,55.000000,,2014-02-20 14:42:00,
2014-02-20 09:52:00,21.0,19.0,-100.00,East,100,3.0,6.0,90,0.00,,,0.30,55.000000,,2014-02-20 14:52:00,
2014-02-20 10:02:00,21.0,19.0,-100.00,East,100,3.0,6.0,90,0.00,,,0.30,55.000000,,2014-02-20 15:02:00,
2014-02-20 10:43:00,25.0,21.0,-100.00,ESE,121,5.0,10.0,86,0.00,,,0.30,167.000000,,2014-02-20 15:43:00,
2014-02-20 10:53:00,25.0,21.0,-100.00,ESE,121,5.0,10.0,86,0.00,,,0.30,167.000000,,2014-02-20 15:53:00,
2014-02-20 11:03:00,25.0,21.0,-100.00,ESE,121,5.0,10.0,86,0.00,,,0.30,167.000000,,2014-02-20 16:03:00,
2014-02-20 11:43:00,30.0,22.0,-100.00,SE,142,6.0,11.0,72,0.00,,,0.30,326.000000,,2014-02-20 16:43:00,
2014-02-20 11:53:00,30.0,22.0,-100.00,SE,142,6.0,11.0,72,0.00,,,0.30,326.000000,,2014-02-20 16:53:00,
2014-02-20 12:03:00,30.0,22.0,-100.00,SE,142,6.0,11.0,72,0.00,,,0.30,326.000000,,2014-02-20 17:03:00,
2014-02-20 12:22:00,33.0,22.0,-100.00,SE,137,7.0,15.0,64,0.00,,,0.24,301.000000,,2014-02-20 17:22:00,
2014-02-20 12:33:00,33.0,22.0,-100.00,SE,137,7.0,15.0,64,0.00,,,0.24,301.000000,,2014-02-20 17:33:00,
2014-02-20 12:43:00,33.0,22.0,-100.00,SE,137,7.0,15.0,64,0.00,,,0.24,301.000000,,2014-02-20 17:43:00,
2014-02-20 12:52:00,33.0,22.0,-100.00,SE,137,7.0,15.0,64,0.00,,,0.24,301.000000,,2014-02-20 17:52:00,
2014-02-20 13:02:00,33.0,22.0,-100.00,SE,137,7.0,15.0,64,0.00,,,0.24,301.000000,,2014-02-20 18:02:00,
2014-02-20 13:43:00,36.0,23.0,-100.00,SE,130,7.0,16.0,58,0.00,,,0.14,367.000000,,2014-02-20 18:43:00,
2014-02-20 13:53:00,36.0,23.0,-100.00,SE,130,7.0,16.0,58,0.00,,,0.14,367.000000,,2014-02-20 18:53:00,
2014-02-20 14:02:00,36.0,23.0,-100.00,SE,130,7.0,16.0,58,0.00,,,0.14,367.000000,,2014-02-20 19:02:00,
2014-02-20 14:42:00,36.0,21.0,-100.00,SSE,161,11.0,18.0,54,0.00,,,0.08,430.000000,,2014-02-20 19:42:00,
2014-02-20 14:52:00,36.0,21.0,-100.00,SSE,161,11.0,18.0,54,0.00,,,0.08,430.000000,,2014-02-20 19:52:00,
2014-02-20 15:02:00,36.0,21.0,-100.00,SSE,161,11.0,18.0,54,0.00,,,0.08,430.000000,,2014-02-20 20:02:00,
2014-02-20 15:42:00,36.0,20.0,-100.00,SE,131,7.0,17.0,52,0.00,,,0.00,319.000000,,2014-02-20 20:42:00,
2014-02-20 15:53:00,36.0,20.0,-100.00,SE,131,7.0,17.0,52,0.00,,,0.00,319.000000,,2014-02-20 20:53:00,
2014-02-20 16:02:00,36.0,20.0,-100.00,SE,131,7.0,17.0,52,0.00,,,0.00,319.000000,,2014-02-20 21:02:00,
2014-02-20 16:43:00,36.0,23.0,-100.00,SE,134,7.0,15.0,58,0.00,,,0.00,198.000000,,2014-02-20 21:43:00,
2014-02-20 16:53:00,36.0,23.0,-100.00,SE,134,7.0,15.0,58,0.00,,,0.00,198.000000,,2014-02-20 21:53:00,
2014-02-20 17:03:00,36.0,23.0,-100.00,SE,134,7.0,15.0,58,0.00,,,0.00,198.000000,,2014-02-20 22:03:00,
2014-02-20 17:43:00,33.0,23.0,-100.00,SE,140,9.0,16.0,66,0.00,,,0.00,121.000000,,2014-02-20 22:43:00,
2014-02-20 17:53:00,33.0,23.0,-100.00,SE,140,9.0,16.0,66,0.00,,,0.00,121.000000,,2014-02-20 22:53:00,
2014-02-20 18:03:00,33.0,23.0,-100.00,SE,140,9.0,16.0,66,0.00,,,0.00,121.000000,,2014-02-20 23:03:00,
2014-02-20 18:43:00,30.0,23.0,-100.00,SE,132,8.0,16.0,75,0.00,,,0.00,28.000000,,2014-02-20 23:43:00,
2014-02-20 18:53:00,30.0,23.0,-100.00,SE,132,8.0,16.0,75,0.00,,,0.00,28.000000,,2014-02-20 23:53:00,
2014-02-20 19:02:00,30.0,23.0,-100.00,SE,132,8.0,16.0,75,0.00,,,0.00,28.000000,,2014-02-21 00:02:00,
2014-02-20 19:42:00,30.0,23.0,-100.00,SE,128,8.0,18.0,74,0.00,,,0.00,1.000000,,2014-02-21 00:42:00,
2014-02-20 19:52:00,30.0,23.0,-100.00,SE,128,8.0,18.0,74,0.00,,,0.00,1.000000,,2014-02-21 00:52:00,
2014-02-20 20:01:00,30.0,23.0,-100.00,SE,128,8.0,18.0,74,0.00,,,0.00,1.000000,,2014-02-21 01:01:00,
2014-02-20 20:22:00,31.0,26.0,-100.00,SE,130,10.0,23.0,81,0.00,,,0.00,0.000000,,2014-02-21 01:22:00,
2014-02-20 20:32:00,31.0,26.0,-100.00,SE,130,10.0,23.0,81,0.00,,,0.00,0.000000,,2014-02-21 01:32:00,
2014-02-20 20:42:00,31.0,26.0,-100.00,SE,130,10.0,23.0,81,0.00,,,0.00,0.000000,,2014-02-21 01:42:00,
2014-02-20 20:52:00,31.0,26.0,-100.00,SE,130,10.0,23.0,81,0.00,,,0.00,0.000000,,2014-02-21 01:52:00,
2014-02-20 21:01:00,31.0,26.0,-100.00,SE,130,10.0,23.0,81,0.00,,,0.00,0.000000,,2014-02-21 02:01:00,
2014-02-20 21:22:00,31.0,26.0,-100.00,SE,138,11.0,24.0,82,0.00,,,0.00,0.000000,,2014-02-21 02:22:00,
2014-02-20 21:32:00,31.0,26.0,-100.00,SE,138,11.0,24.0,82,0.00,,,0.00,0.000000,,2014-02-21 02:32:00,
2014-02-20 21:42:00,31.0,26.0,-100.00,SE,138,11.0,24.0,82,0.00,,,0.00,0.000000,,2014-02-21 02:42:00,
2014-02-20 21:52:00,31.0,26.0,-100.00,SE,138,11.0,24.0,82,0.00,,,0.00,0.000000,,2014-02-21 02:52:00,
2014-02-20 22:02:00,31.0,26.0,-100.00,SE,138,11.0,24.0,82,0.00,,,0.00,0.000000,,2014-02-21 03:02:00,
2014-02-20 22:22:00,31.0,27.0,-100.00,SE,133,13.0,26.0,85,0.00,,,0.00,0.000000,,2014-02-21 03:22:00,
2014-02-20 22:34:00,31.0,27.0,-100.00,SE,133,13.0,26.0,85,0.00,,,0.00,0.000000,,2014-02-21 03:34:00,
2014-02-20 22:43:00,31.0,27.0,-100.00,SE,133,13.0,26.0,85,0.00,,,0.00,0.000000,,2014-02-21 03:43:00,
2014-02-20 22:54:00,31.0,27.0,-100.00,SE,133,13.0,26.0,85,0.00,,,0.00,0.000000,,2014-02-21 03:54:00,
2014-02-20 23:03:00,31.0,27.0,-100.00,SE,133,13.0,26.0,85,0.00,,,0.00,0.000000,,2014-02-21 04:03:00,
2014-02-20 23:23:00,31.0,28.0,-100.00,SE,135,12.0,25.0,90,0.01,,,0.01,0.000000,,2014-02-21 04:23:00,
2014-02-20 23:33:00,31.0,28.0,-100.00,SE,135,12.0,25.0,90,0.01,,,0.01,0.000000,,2014-02-21 04:33:00,
2014-02-20 23:43:00,31.0,28.0,-100.00,SE,135,12.0,25.0,90,0.01,,,0.01,0.000000,,2014-02-21 04:43:00,
2014-02-20 23:53:00,31.0,28.0,-100.00,SE,135,12.0,25.0,90,0.01,,,0.01,0.000000,,2014-02-21 04:53:00,